This is the latest recevied weather packets stored in our database for station/object EA3KZ-1. If no packets are shown the sender has not sent any weather packets the latest 10 day(s).
| Time | Temp. | Humidity | Pressure | Rain* | Wind** | Luminosity | Snow |
|---|---|---|---|---|---|---|---|
| 1777168267 | 15.56° C | 69% | 1013.4 hPa | 0 mm | - | - | - |
| 1777167664 | 15.56° C | 70% | 1013.3 hPa | 0 mm | - | - | - |
| 1777167062 | 15.56° C | 70% | 1013.3 hPa | 0 mm | - | - | - |
| 1777166459 | 15.56° C | 69% | 1013.2 hPa | 0 mm | - | - | - |
| 1777165856 | 15.56° C | 70% | 1013.2 hPa | 0 mm | - | - | - |
| 1777165254 | 15° C | 71% | 1013.1 hPa | 0 mm | - | - | - |
| 1777164651 | 15° C | 70% | 1013.2 hPa | 0 mm | - | - | - |
| 1777164049 | 15° C | 70% | 1013.2 hPa | 0 mm | - | - | - |
| 1777163446 | 15.56° C | 68% | 1013.2 hPa | 0 mm | - | - | - |
| 1777162843 | 15.56° C | 68% | 1013.4 hPa | 0 mm | - | - | - |
| 1777162241 | 15.56° C | 66% | 1013.3 hPa | 0 mm | - | - | - |
| 1777161638 | 15.56° C | 66% | 1013.5 hPa | 0 mm | - | - | - |
| 1777161036 | 15.56° C | 66% | 1013.5 hPa | 0 mm | - | - | - |
| 1777160433 | 15.56° C | 66% | 1013.6 hPa | 0 mm | - | - | - |
| 1777159830 | 15.56° C | 65% | 1013.6 hPa | 0 mm | - | - | - |
| 1777159228 | 15.56° C | 66% | 1013.6 hPa | 0 mm | - | - | - |
| 1777158625 | 15° C | 66% | 1013.6 hPa | 0 mm | - | - | - |
| 1777158023 | 15.56° C | 66% | 1013.5 hPa | 0 mm | - | - | - |
| 1777157420 | 15.56° C | 66% | 1013.5 hPa | 0 mm | - | - | - |
| 1777156817 | 15.56° C | 67% | 1013.6 hPa | 0 mm | - | - | - |
| 1777156275 | 16.11° C | 64% | 1013.6 hPa | 0 mm | - | - | - |
| 1777155672 | 16.11° C | 64% | 1013.8 hPa | 0 mm | - | - | - |
| 1777155069 | 15.56° C | 68% | 1013.8 hPa | 0 mm | - | - | - |
| 1777154467 | 15.56° C | 69% | 1013.9 hPa | 0 mm | - | - | - |
| 1777153864 | 15.56° C | 71% | 1013.9 hPa | 0 mm | - | - | - |
* Rain latest hour (hover to see other rain measurements)
** Current wind speed in m/s (hover to see current wind gust speed)